Theta_e
320 323 323 323 323 321 318 318 319 321 324 328 328 328 329 327 325 324 324 323 317 315 319 317 315 315 314 315 315 312 310 311 311 311 312 311 310 310 309 309 307 306 304 302 303 304 304 307 309 310 311 310 309 309 310 311 310 311 312 312 311 310 311 312 311 312 312 310 310 311 310 309 306 307 309 309 309 309 309 310 311 312 312 312 313 312
318 322 323 323 320 318 319 319 318 318 319 320 321 323 325 325 323 321 322 321 316 315 322 320 316 315 314 314 314 313 312 312 311 311 311 311 310 310 309 309 308 306 303 302 302 303 304 306 308 309 310 309 308 308 308 308 308 308 309 310 309 307 307 308 309 310 310 308 309 311 310 307 305 305 306 306 306 306 307 308 309 309 309 309 310 309
320 321 321 319 318 318 319 319 316 318 319 319 320 320 322 324 322 323 324 320 315 316 323 325 320 317 316 315 315 315 315 313 311 310 311 311 310 310 309 309 307 306 304 303 302 302 304 306 306 308 309 309 308 308 307 307 307 306 306 307 307 305 304 305 305 307 307 305 307 310 308 306 305 303 304 304 303 304 305 305 305 305 305 305 304 304
325 326 322 316 317 319 319 319 318 318 319 320 321 319 322 324 322 325 327 320 317 318 320 324 320 316 317 317 318 317 314 313 312 311 311 311 311 310 309 308 307 306 305 304 303 302 303 304 304 306 308 308 308 307 307 306 305 305 304 305 305 305 304 304 304 305 305 304 305 307 306 305 305 302 302 303 301 302 304 303 301 300 299 299 298 297
325 327 321 316 319 320 320 321 321 321 323 323 323 321 322 323 322 324 325 322 325 326 320 320 320 321 322 319 319 319 315 313 314 315 313 311 312 311 309 309 307 305 304 304 304 302 302 303 303 305 308 308 307 307 307 306 305 304 304 304 304 304 305 306 307 308 308 307 305 304 302 301 301 298 299 300 298 298 300 298 296 295 294 294 293 293
322 322 321 320 319 320 321 322 324 326 325 324 324 323 321 322 323 324 324 324 329 335 326 319 325 332 329 323 320 321 319 317 316 316 314 311 312 312 311 309 307 305 304 303 304 302 301 302 303 305 307 307 307 306 306 307 306 304 303 303 303 303 304 305 308 309 309 309 307 306 302 300 298 295 295 298 296 294 295 293 292 291 291 292 292 292
321 320 323 326 323 322 324 323 326 326 321 324 329 327 322 322 324 324 325 325 329 333 325 320 328 332 326 324 326 325 323 322 320 316 314 313 312 312 310 309 307 305 304 303 303 301 301 301 302 304 305 306 306 306 306 306 307 306 304 304 303 304 305 305 306 307 308 308 307 308 306 304 301 296 292 294 293 292 292 290 290 290 290 291 291 291
323 321 322 326 326 326 325 324 326 323 322 328 329 328 325 323 324 325 324 325 329 329 323 322 328 328 324 324 328 330 328 328 324 318 315 313 311 311 309 308 306 305 303 303 303 302 300 301 302 303 304 305 305 306 305 305 306 306 305 305 306 307 307 306 306 306 307 309 307 307 305 302 301 296 291 290 291 290 290 290 290 290 290 291 291 291
323 325 324 324 325 326 326 327 326 322 324 327 326 326 328 326 327 328 324 325 327 326 325 324 324 327 327 324 324 326 326 326 324 321 318 314 311 310 309 308 306 304 303 302 303 302 300 300 302 303 304 304 305 305 305 305 305 305 304 305 307 307 307 306 306 306 306 307 307 305 302 298 295 293 290 289 289 289 289 290 289 290 290 290 290 290
322 323 323 323 324 325 327 329 326 323 322 323 323 326 328 328 329 331 329 328 328 328 328 326 325 327 329 327 325 323 323 326 323 321 319 316 312 310 309 308 306 304 303 302 302 301 300 301 301 303 303 303 304 304 304 304 304 303 302 302 305 305 305 305 305 305 305 304 305 303 300 296 291 289 289 288 289 289 289 289 289 289 289 289 289 289
321 317 317 322 323 323 325 323 321 323 320 320 327 331 333 333 332 335 333 328 329 330 328 328 327 327 329 329 327 324 325 326 323 322 321 318 314 310 308 307 306 304 303 302 301 300 300 301 301 302 302 301 302 302 303 303 303 302 301 301 303 302 302 304 304 304 303 302 302 300 298 295 291 289 288 288 288 288 289 289 288 289 288 288 288 288
321 319 319 321 321 323 325 320 318 321 320 324 335 335 334 334 333 335 332 327 329 330 328 328 326 325 328 329 327 324 323 322 320 322 324 322 317 311 308 306 304 303 302 301 302 300 298 298 299 300 300 300 301 301 302 302 301 301 300 300 301 299 298 301 302 302 301 299 299 298 296 293 290 289 289 289 289 288 289 289 288 288 287 287 287 287
323 325 323 319 318 322 327 324 321 321 320 326 333 331 329 330 331 332 330 327 328 328 324 323 323 324 325 326 325 324 322 321 320 319 320 322 319 312 308 306 304 302 301 301 301 300 298 297 297 298 299 299 300 300 300 300 299 299 298 299 300 298 297 299 299 300 299 297 297 296 293 291 289 289 289 289 289 289 289 289 288 288 287 287 287 287
327 326 322 319 319 322 324 324 324 323 323 324 327 329 330 329 330 331 329 327 328 327 322 319 321 324 325 326 323 322 321 322 321 319 319 320 318 313 308 305 304 302 301 301 300 300 298 297 297 297 298 298 298 299 299 298 298 298 297 298 299 298 296 297 298 298 297 296 295 293 292 290 289 289 290 290 290 289 289 289 289 289 288 288 287 287
330 330 326 322 322 323 321 321 326 326 323 322 324 327 328 330 333 333 330 329 330 328 322 317 322 328 330 328 322 320 320 319 319 317 315 314 312 311 309 305 304 302 301 301 300 299 298 297 297 297 297 298 298 299 299 298 298 297 297 298 299 298 296 296 297 297 296 294 293 291 290 290 289 289 290 290 290 290 290 289 289 289 288 288 288 288
326 332 329 321 320 321 320 321 325 326 322 322 324 326 327 329 331 331 329 327 326 327 322 319 324 328 328 324 319 319 319 317 318 314 312 313 310 309 308 305 303 302 301 300 299 299 298 297 297 297 297 297 297 298 298 298 298 297 297 298 299 299 297 296 297 297 296 293 291 290 290 290 289 289 290 289 289 289 290 290 289 289 288 288 288 288
327 331 324 316 319 319 319 322 322 325 326 322 322 324 324 324 326 328 327 322 321 326 325 322 324 325 323 321 319 319 317 317 319 315 313 313 309 307 307 304 303 302 300 300 299 298 297 296 296 296 297 297 297 297 298 298 298 298 297 297 298 298 297 296 296 296 295 293 290 290 290 289 289 289 290 289 289 289 289 289 289 289 288 288 288 287
328 331 322 317 321 317 315 322 323 322 323 323 325 325 322 322 327 330 330 326 324 327 327 323 325 325 324 325 323 318 317 319 320 318 314 310 307 307 306 303 302 302 300 300 299 297 296 295 296 296 296 297 297 297 297 298 298 298 298 298 298 297 297 296 296 295 294 292 290 289 289 289 289 289 290 289 289 289 289 288 288 288 288 288 288 287
325 328 323 316 320 316 313 321 325 319 317 322 327 325 323 328 329 327 329 329 328 329 329 326 324 323 323 325 325 321 322 325 321 318 316 312 308 306 304 303 302 301 300 299 299 297 295 295 295 295 296 296 297 296 296 297 297 297 297 297 298 297 296 296 295 294 293 291 290 289 289 289 289 289 289 289 289 288 289 288 288 288 288 288 287 287
326 327 325 316 315 316 315 320 325 322 316 318 321 320 322 327 327 325 327 329 330 331 330 329 327 325 325 325 326 323 323 325 322 319 317 312 307 305 304 303 301 301 300 299 298 297 295 294 295 295 295 296 296 296 296 296 296 296 296 296 296 296 295 294 294 293 292 290 290 289 289 289 288 289 289 289 289 288 288 289 288 288 288 288 287 287
324 324 326 318 313 317 320 321 322 323 319 318 320 321 320 321 322 324 325 325 329 331 331 331 328 328 327 324 323 323 322 321 321 320 317 311 306 304 303 302 301 300 300 299 298 297 295 294 294 295 295 296 296 296 295 295 295 295 295 295 295 295 294 293 293 292 291 290 290 289 289 289 288 288 288 288 288 288 288 288 288 288 288 287 287 287
324 325 328 323 317 320 324 320 318 319 320 319 320 321 320 320 321 324 325 323 324 326 330 330 327 327 329 324 321 323 322 319 316 315 315 312 308 305 303 302 301 300 300 299 298 297 295 294 294 294 294 295 295 295 294 294 294 294 294 294 294 294 294 293 292 292 291 290 290 290 289 289 288 288 288 288 288 288 288 288 288 288 287 287 287 287
325 327 328 324 319 320 321 317 314 317 318 318 320 321 321 320 321 324 327 324 323 324 325 327 326 325 324 320 319 321 320 317 314 312 312 313 310 306 304 302 301 301 300 299 298 296 294 294 293 293 294 294 294 294 294 294 294 294 294 294 294 294 294 293 292 291 291 291 290 290 290 289 289 289 288 288 288 288 288 288 288 287 287 287 287 286
324 325 326 325 320 320 321 318 314 315 316 318 321 321 320 320 320 324 327 325 324 324 323 325 326 324 319 318 317 317 316 316 316 313 311 313 312 307 304 303 302 301 300 300 298 295 293 293 293 292 293 293 293 294 293 293 293 293 293 294 293 293 293 292 292 291 291 291 291 290 290 290 289 289 288 288 288 288 288 288 287 287 287 287 287 286
323 325 327 328 326 324 324 322 318 316 316 319 322 320 318 318 319 322 324 323 323 324 324 325 327 323 320 319 317 317 319 322 322 316 311 313 313 307 304 303 302 301 300 300 298 296 294 293 292 292 292 292 293 293 293 293 293 293 293 293 293 293 292 292 291 291 291 291 291 290 290 290 290 289 288 288 288 288 288 287 287 287 287 287 286 286
324 327 325 327 329 328 327 326 323 320 317 318 321 320 317 318 319 321 322 322 323 324 324 324 325 322 320 318 316 317 320 324 326 318 311 311 312 307 304 303 302 301 300 299 298 296 295 293 292 292 292 292 292 293 293 293 293 292 292 293 292 292 292 292 291 291 291 291 290 290 290 290 289 289 288 288 288 288 287 287 287 287 287 286 286 286
325 326 324 325 327 326 327 327 323 322 320 319 320 320 318 318 318 319 321 322 323 324 323 323 323 323 322 321 319 318 321 326 329 323 316 312 310 307 304 303 302 301 300 299 298 296 295 294 292 292 292 292 292 292 293 293 292 292 292 292 292 292 292 292 291 291 291 290 290 290 290 289 289 289 288 288 288 288 287 287 287 286 286 286 286 286
326 325 323 325 325 325 329 328 322 321 322 321 320 319 318 318 318 319 321 322 323 324 324 323 322 323 323 321 320 321 322 324 326 325 320 312 308 306 305 304 303 302 301 299 298 297 296 294 293 291 291 291 292 292 293 293 292 292 292 291 291 291 291 291 291 290 290 290 290 290 289 289 289 288 288 288 288 287 287 287 287 286 286 286 286 286
326 324 322 324 323 324 327 325 319 319 321 320 320 319 318 317 318 319 320 321 322 323 323 323 324 324 321 319 321 321 319 318 319 319 315 310 308 307 306 305 304 303 301 300 298 297 296 295 294 292 292 291 291 292 292 292 292 292 291 291 291 291 291 291 290 290 290 290 290 289 289 289 288 288 288 287 287 287 287 286 286 286 286 286 286 286
324 325 323 322 322 322 324 322 319 319 319 318 319 319 317 317 317 318 319 319 320 321 321 322 323 322 320 321 322 319 315 314 315 314 312 311 310 308 306 306 304 302 301 300 298 297 296 295 294 293 292 291 291 291 291 292 292 292 291 291 290 290 290 290 290 290 289 289 289 289 288 288 288 287 287 287 287 287 287 286 286 286 286 286 286 286
321 324 321 320 322 322 321 320 319 319 319 319 319 318 316 316 316 317 318 318 319 320 319 320 321 321 321 322 321 317 314 313 314 314 313 311 310 308 307 305 304 303 301 300 299 298 297 296 295 293 292 292 291 291 291 292 292 292 291 291 290 290 290 290 290 290 289 289 289 288 288 287 287 287 287 287 287 286 286 286 286 286 285 285 285 285
318 320 318 319 323 323 320 320 319 318 318 319 319 318 316 315 315 316 316 317 318 319 319 320 320 319 319 319 317 314 314 314 315 314 312 310 308 307 307 306 304 303 302 301 300 299 298 297 295 294 293 293 292 292 292 292 292 292 292 291 290 290 290 290 290 289 289 289 288 288 288 287 287 287 287 286 286 286 286 286 285 285 285 285 285 285
316 318 318 319 323 322 320 320 319 317 318 320 321 319 316 314 315 315 316 316 316 317 319 319 319 319 320 319 316 314 312 313 313 312 311 310 308 307 307 306 304 303 302 302 301 300 299 298 296 295 294 294 293 293 292 292 292 292 292 291 291 290 290 290 290 290 289 289 288 288 287 287 287 286 286 286 286 286 285 285 285 285 285 285 285 285
315 317 317 318 322 321 317 316 318 319 321 322 321 319 317 315 316 316 316 316 315 315 317 318 318 321 323 320 316 316 314 312 311 309 309 309 308 307 307 306 305 304 303 302 301 300 299 297 296 296 295 294 294 294 293 293 293 293 292 291 291 290 290 290 290 289 289 289 288 288 287 287 287 286 286 286 285 285 285 285 285 285 285 285 285 285
313 315 315 316 319 317 314 316 320 322 322 319 315 315 316 316 315 316 317 316 315 314 315 316 316 319 321 319 316 315 313 311 311 310 310 309 306 306 308 307 306 305 304 303 302 301 298 297 297 296 295 295 295 294 293 293 292 292 291 291 291 290 290 290 290 289 289 289 288 288 287 287 287 286 286 285 284 284 284 284 284 284 284 284 285 285
313 314 315 316 316 314 314 319 322 321 318 314 309 309 313 316 315 316 317 316 315 314 314 315 314 314 317 318 315 313 311 311 311 311 310 310 308 307 308 309 308 308 309 306 304 301 298 297 297 297 297 296 295 294 293 293 292 292 291 291 291 290 290 290 289 289 289 289 288 288 287 287 286 286 285 285 284 284 284 284 284 284 284 284 284 285
313 314 314 315 315 314 315 318 319 318 317 315 311 310 313 317 317 316 318 318 316 314 313 314 314 313 314 315 314 312 311 311 311 311 310 310 309 308 310 312 311 312 310 305 302 302 300 300 300 299 298 296 295 295 295 293 292 291 291 291 290 290 290 289 289 289 289 288 288 288 287 287 286 286 286 285 284 284 283 283 283 283 284 284 284 284
312 313 314 316 316 315 315 316 317 319 319 318 317 314 314 316 315 315 318 320 318 315 313 313 314 314 313 313 312 312 313 313 312 311 311 310 308 307 309 307 303 303 304 302 301 301 301 300 300 299 298 297 296 296 295 294 293 291 291 290 290 290 289 289 289 289 289 288 288 288 288 287 287 287 286 285 285 284 284 283 283 283 284 284 284 285
310 311 312 315 316 315 316 317 317 319 318 318 318 313 311 314 315 313 315 318 320 320 315 312 313 314 313 312 311 312 313 314 313 313 313 312 307 305 307 305 298 296 299 301 301 301 301 300 299 298 298 298 297 297 296 294 293 292 290 290 290 289 289 289 289 289 289 289 289 288 288 288 287 286 286 285 285 285 284 284 283 283 283 284 284 284
309 311 312 314 316 315 315 317 317 317 316 317 316 310 308 311 314 315 318 320 320 317 311 310 312 312 311 310 309 311 313 313 315 317 316 311 305 300 301 304 300 295 296 299 300 301 301 300 299 299 298 298 298 297 296 294 293 291 291 290 289 289 289 290 290 290 290 289 289 288 288 288 287 287 286 286 285 285 285 284 283 283 283 282 283 283
310 311 312 314 316 315 315 317 316 317 317 317 313 309 309 310 311 316 321 320 317 312 307 309 312 310 309 309 308 311 313 311 311 311 308 306 305 300 295 294 294 294 296 298 299 300 300 299 299 299 299 299 299 297 296 294 293 291 291 290 289 289 291 292 291 290 290 289 289 288 288 288 287 287 286 286 286 285 284 284 283 283 282 282 282 281
311 311 311 313 314 315 316 316 316 318 318 313 307 306 307 310 315 319 316 312 312 312 308 308 311 309 307 308 308 309 308 304 304 305 303 302 304 302 295 291 291 293 294 296 297 298 299 298 298 299 299 298 298 297 296 294 293 292 291 289 290 292 293 292 291 290 289 289 288 288 288 288 288 287 287 286 285 284 284 283 283 283 282 282 281 280
311 312 312 313 314 314 315 315 316 318 313 307 305 305 306 312 320 319 309 303 306 309 308 308 310 308 307 307 306 305 304 301 300 300 300 299 300 298 294 291 291 292 292 294 296 296 297 297 297 297 297 297 297 297 296 295 294 292 291 291 293 294 293 291 290 289 289 289 288 288 288 288 287 287 286 286 285 284 284 283 283 282 282 281 281 280
311 312 312 312 313 313 315 314 315 315 309 305 308 309 308 312 315 312 308 306 304 304 306 309 309 306 306 307 305 301 300 298 297 297 297 297 296 296 294 291 290 291 292 293 294 295 295 296 296 296 296 296 296 296 296 295 294 292 291 293 294 293 292 291 290 289 289 289 288 288 288 288 287 287 286 286 285 284 284 283 282 282 281 281 280 280
311 311 312 313 312 312 313 312 310 309 305 303 307 309 308 308 305 305 309 310 305 303 306 310 310 306 303 305 303 299 297 296 295 296 297 297 297 297 295 292 289 290 292 292 293 293 294 294 294 294 294 294 295 295 295 295 294 293 293 294 294 293 293 292 291 290 289 289 289 288 288 288 287 287 286 286 285 284 284 283 282 281 281 280 280 279
307 307 310 312 311 309 309 307 304 304 303 302 303 303 303 303 302 303 308 308 305 306 307 310 312 308 302 302 302 299 297 296 295 295 296 297 298 296 292 289 288 289 290 291 291 291 292 292 292 292 292 292 292 293 294 294 294 293 294 294 293 293 293 292 291 291 290 290 289 289 288 287 287 286 286 285 285 284 284 283 283 282 281 280 279 279
305 304 306 310 311 310 310 307 304 302 302 301 300 298 298 300 300 301 305 306 305 306 306 306 307 303 299 301 302 300 297 295 295 296 296 296 298 297 292 288 287 288 289 290 290 290 290 290 291 291 291 292 291 291 292 292 293 293 293 293 292 292 292 291 291 291 290 290 289 288 287 287 287 286 285 285 284 284 283 283 283 282 281 280 279 279
306 304 306 310 310 308 305 301 298 298 298 298 299 299 298 300 299 299 301 302 301 300 300 300 300 299 299 300 300 299 297 295 295 297 296 295 296 297 292 286 285 287 289 289 289 290 290 290 291 291 291 292 292 292 292 292 292 292 292 292 292 291 291 291 291 291 290 290 289 288 288 287 287 286 285 285 284 284 283 283 282 282 281 282 281 280
305 305 307 309 307 304 300 296 296 300 300 297 298 300 299 299 300 298 297 298 298 297 297 296 296 297 299 298 297 298 298 295 295 296 295 294 296 294 289 285 286 288 289 288 289 290 290 290 291 291 291 292 292 292 292 292 292 292 292 291 291 291 290 290 290 290 290 289 289 288 288 287 286 286 285 285 284 284 284 283 283 282 283 283 282 281
304 305 305 306 306 305 302 299 299 303 304 300 299 301 299 297 298 298 298 298 298 297 297 297 295 294 294 293 293 298 300 296 293 294 296 296 293 290 286 285 287 288 288 289 289 289 289 290 290 290 291 291 291 291 291 292 292 291 291 291 291 290 290 289 289 289 289 289 288 288 288 287 286 286 285 284 284 283 283 282 282 281 281 281 280 280
304 305 304 304 306 306 303 300 300 303 306 302 300 302 300 296 297 299 299 298 296 294 296 298 297 295 295 291 288 292 300 299 291 292 298 296 289 287 288 288 288 289 288 288 288 288 289 289 289 289 290 290 290 290 290 290 290 290 290 290 289 289 289 288 288 288 288 288 288 288 287 287 286 285 284 283 282 282 281 280 280 280 279 279 278 278
Wind_Speed
3 3 2 5 7 8 9 10 8 5 6 5 4 3 4 4 5 5 5 6 4 5 6 9 10 11 12 12 10 7 7 8 10 9 8 8 8 8 9 9 9 7 7 11 15 15 13 13 15 16 17 17 16 16 17 18 18 20 21 23 24 25 25 26 27 27 28 29 29 29 29 29 28 27 27 26 25 25 24 23 22 21 21 21 21 20
3 5 7 10 10 9 9 9 7 4 3 2 2 3 4 4 6 6 5 5 1 4 6 6 8 11 12 12 9 5 7 10 13 13 12 11 10 9 10 10 8 6 6 10 13 14 15 15 16 17 18 19 19 18 18 19 20 20 22 24 25 24 24 24 26 27 27 27 29 31 31 31 30 28 28 28 26 25 24 23 23 22 22 21 21 20
2 5 11 12 6 5 5 6 6 5 5 4 2 2 4 4 4 7 5 4 1 4 5 6 7 10 10 11 8 6 9 11 13 15 15 13 12 11 11 10 9 8 7 8 10 14 17 17 17 18 19 20 20 20 19 20 21 20 21 24 25 24 24 24 25 27 28 28 29 31 32 32 30 28 28 28 27 26 25 23 23 22 22 22 22 22
4 6 11 9 6 6 5 4 6 4 3 4 4 2 5 4 2 5 5 3 1 2 3 5 8 8 7 7 8 10 11 9 9 12 12 11 12 13 12 11 11 13 11 9 9 11 16 18 17 18 21 20 20 21 20 20 21 22 22 23 25 25 26 26 26 27 29 30 31 32 31 29 29 29 27 27 26 25 24 24 24 24 25 25 26 26
7 6 4 7 9 8 7 4 6 4 3 5 6 6 6 6 6 6 4 4 4 4 2 4 8 7 6 9 11 8 6 6 6 8 10 10 9 8 8 9 11 12 13 12 10 11 15 18 17 19 21 21 20 21 21 21 21 23 24 23 25 26 27 27 27 29 30 31 31 32 31 29 29 29 27 27 27 26 26 27 28 28 28 28 28 28
8 5 3 8 7 7 7 6 6 7 5 5 5 9 10 9 8 6 2 4 4 5 4 1 4 7 4 7 12 6 2 6 6 7 12 11 8 8 9 10 10 10 10 11 11 13 16 17 18 18 21 22 21 21 21 22 22 23 24 24 25 26 27 28 29 30 30 30 29 29 29 28 29 28 26 28 30 30 31 31 31 31 29 28 28 27
5 5 5 7 6 7 7 6 6 7 5 4 6 10 11 8 6 5 1 1 2 5 4 2 1 7 5 5 9 6 4 9 9 8 11 9 8 11 11 10 10 10 9 9 10 13 16 18 19 19 21 22 22 21 21 21 23 24 24 24 25 26 26 28 29 29 28 28 27 26 26 27 29 30 28 30 32 33 34 33 32 31 29 27 26 26
5 7 5 6 6 7 6 5 6 8 7 5 5 6 8 7 6 5 4 3 4 3 4 1 3 5 9 5 6 6 6 10 12 10 11 9 10 11 10 10 11 12 11 10 9 11 15 19 20 20 22 22 22 23 21 21 22 24 25 25 25 26 28 28 28 28 26 25 25 26 27 29 32 33 33 34 34 34 34 33 32 30 28 27 25 25
4 8 9 9 6 5 6 5 7 9 5 6 3 6 6 6 5 4 4 3 1 2 4 2 4 3 10 4 1 3 7 12 13 13 14 11 11 10 9 10 10 10 10 11 11 12 16 19 21 22 23 22 23 23 22 23 23 23 25 26 26 27 28 28 27 26 24 23 25 27 31 33 35 36 36 36 35 35 34 33 31 29 28 27 25 24
1 6 8 9 7 7 6 3 6 10 6 4 5 6 6 5 4 5 4 3 2 3 5 6 5 3 9 3 3 1 5 10 12 12 12 9 10 10 8 8 8 9 8 9 11 14 18 20 22 23 23 23 24 24 23 24 25 25 26 27 28 29 28 27 26 25 24 25 27 31 35 38 39 38 37 36 36 35 34 33 31 29 28 27 26 25
2 1 2 4 4 6 5 2 2 6 6 5 7 6 6 6 5 4 2 4 2 6 6 9 9 5 6 3 4 4 5 7 8 8 7 4 8 9 8 8 9 10 9 8 9 14 18 20 22 24 24 23 24 25 25 25 26 28 28 29 30 29 28 27 26 25 25 27 31 34 38 41 42 41 39 38 37 35 34 33 32 30 28 27 26 24
4 2 1 2 3 4 6 5 3 1 4 5 5 5 4 4 5 4 4 3 1 7 5 9 10 9 8 6 3 5 6 5 7 6 7 6 8 9 8 9 9 9 10 10 9 11 16 18 21 24 24 25 26 27 27 28 29 30 31 32 32 29 27 27 26 26 28 31 34 37 39 42 43 42 41 40 39 37 35 34 33 31 29 27 26 24
2 4 3 2 1 4 6 4 4 4 4 5 5 6 3 2 3 2 3 0 4 7 3 5 6 6 9 9 7 10 12 10 7 6 7 7 7 9 10 9 8 8 9 10 10 10 13 17 21 24 26 27 28 29 30 30 31 32 32 33 32 30 27 27 27 29 32 34 36 39 40 41 41 41 41 40 39 37 36 35 34 32 30 28 27 25
3 5 2 1 3 3 8 7 3 1 3 5 6 6 5 3 0 3 3 2 4 5 4 2 3 3 5 6 10 15 15 10 5 6 8 7 8 10 11 10 9 9 9 10 10 10 11 17 22 25 28 28 28 30 31 31 32 32 32 32 32 31 29 28 29 31 34 36 37 39 40 40 40 40 39 39 38 37 35 34 33 31 30 28 27 25
4 6 4 7 4 5 10 9 6 6 5 5 5 6 6 6 4 4 4 4 4 4 4 1 2 3 3 3 7 9 9 6 4 6 6 6 6 7 8 9 10 10 10 9 10 11 13 20 24 25 26 27 28 30 32 32 33 33 33 33 32 32 31 30 30 32 35 37 38 39 39 40 40 39 38 38 37 36 34 33 32 30 29 27 26 24
4 6 6 4 1 9 11 6 5 7 3 2 2 5 3 5 6 3 3 5 3 2 4 2 4 5 4 6 7 5 6 6 5 5 3 3 3 6 8 9 11 10 10 10 10 10 14 20 24 24 26 27 28 31 32 33 34 34 34 34 33 33 33 33 32 34 36 38 39 39 39 39 39 38 38 37 36 34 33 32 31 30 28 27 25 24
3 5 5 2 2 6 7 4 4 4 3 2 2 5 3 3 6 3 2 2 2 3 4 4 5 5 3 8 8 3 6 8 6 5 3 2 3 7 8 9 10 11 11 11 10 10 13 19 22 24 27 28 29 31 33 35 36 36 36 35 35 34 35 34 34 35 37 39 40 39 39 39 39 39 38 37 36 34 33 31 30 29 28 27 25 24
4 3 4 1 1 3 1 3 3 2 4 6 3 6 2 3 2 2 2 1 1 5 5 4 8 5 1 5 5 4 4 10 9 6 4 3 5 7 8 8 9 10 10 10 10 10 14 19 22 24 27 29 31 33 34 36 36 37 37 36 37 37 37 37 36 37 38 40 41 40 40 39 39 38 37 36 36 35 34 32 31 30 28 27 26 25
3 2 4 1 2 3 3 3 3 4 2 4 4 5 4 1 2 2 2 3 2 4 5 3 6 5 6 5 3 2 7 10 10 7 6 7 9 8 7 8 8 8 9 9 10 9 12 19 23 25 27 29 31 32 34 35 36 36 36 36 36 37 37 37 36 37 39 40 40 40 39 39 38 38 37 36 36 35 34 33 32 30 29 28 27 25
2 2 3 1 0 1 2 2 4 3 1 3 1 3 3 2 3 3 3 2 2 3 3 3 2 3 6 6 6 9 10 10 10 8 9 11 10 9 8 8 9 10 10 10 11 10 12 19 24 27 29 30 32 33 33 34 35 35 35 35 35 35 35 35 36 38 39 40 40 40 39 38 38 38 37 36 36 35 34 33 32 31 29 29 27 26
2 3 3 2 2 0 2 4 7 9 6 3 4 5 3 1 2 1 2 2 3 3 3 4 5 5 5 4 7 10 10 10 10 9 10 10 9 9 8 9 9 10 10 11 11 10 13 19 23 25 28 29 30 31 32 33 33 34 34 34 35 35 36 37 37 39 40 41 40 40 40 39 38 38 37 36 36 35 34 33 32 31 30 29 28 26
3 3 3 2 1 3 5 5 5 7 7 6 7 8 8 6 4 2 4 2 3 3 4 2 6 7 4 3 5 7 7 7 7 8 9 7 7 8 8 9 10 10 10 11 10 10 12 17 21 23 26 27 29 30 31 33 33 34 35 36 36 37 38 39 40 41 41 41 41 41 40 39 39 38 37 36 36 34 34 33 32 31 30 29 28 27
3 3 3 3 3 5 6 4 2 4 3 3 3 5 7 7 7 6 6 4 2 2 3 2 5 8 3 4 5 5 6 6 6 7 8 6 6 8 7 8 9 9 8 9 8 9 12 17 20 23 25 27 29 30 32 33 35 36 37 37 38 39 40 41 41 42 42 41 41 40 40 39 39 38 37 37 37 35 34 33 32 31 30 29 29 27
3 3 3 2 2 3 4 4 1 1 2 2 3 4 7 8 8 6 4 4 3 4 3 2 6 7 3 3 4 4 5 5 5 6 8 6 5 7 8 8 8 8 7 7 7 8 12 16 19 22 24 27 28 30 32 34 35 36 37 38 39 40 40 40 40 41 41 40 40 40 40 40 39 39 39 39 38 36 35 33 33 32 30 30 29 28
4 4 4 2 1 2 3 2 2 1 3 4 4 6 8 8 6 3 1 3 3 7 9 6 9 6 2 3 3 4 4 5 5 5 6 6 5 6 8 7 8 8 7 8 8 8 11 14 17 20 23 25 28 30 32 33 34 36 37 39 39 38 37 38 39 40 40 40 40 40 41 41 41 41 41 40 38 37 36 34 34 33 32 31 30 29
6 5 6 6 7 8 7 7 5 3 3 2 3 7 10 11 12 7 3 4 6 6 11 10 12 6 1 3 4 5 4 5 6 4 4 6 6 7 8 8 8 8 8 10 10 9 11 12 15 19 21 23 25 27 29 31 33 34 35 36 36 36 37 38 40 41 41 41 41 41 42 42 42 42 42 41 39 38 37 36 35 34 33 32 31 30
3 4 9 13 13 13 9 5 5 7 6 7 9 11 13 14 14 10 5 8 6 3 7 13 12 10 9 6 6 6 4 5 6 4 4 6 5 5 7 7 7 7 8 9 9 8 9 10 13 17 20 20 22 24 27 29 31 33 33 34 35 36 37 39 40 41 41 41 41 41 43 43 44 43 43 42 40 39 38 37 36 35 34 33 32 31
4 5 11 14 15 12 6 4 6 10 12 15 15 14 15 14 14 13 13 11 7 4 11 10 7 12 18 12 10 8 6 7 8 7 7 6 5 5 5 6 7 7 7 8 9 9 9 9 10 15 18 20 21 24 26 27 28 29 31 32 34 36 38 39 40 40 40 40 41 42 44 44 43 43 43 42 41 40 39 38 37 36 35 34 33 32
5 8 10 12 16 12 5 5 7 9 9 10 13 15 16 15 16 17 19 16 10 9 15 7 9 17 20 12 10 10 9 10 9 6 5 5 5 6 7 8 8 8 8 9 10 10 11 10 10 14 18 20 22 24 25 26 27 27 29 30 33 35 37 38 38 39 39 40 42 43 43 43 42 43 43 42 42 41 41 40 39 37 36 35 34 32
4 6 6 9 15 13 6 5 6 8 6 5 9 14 15 16 19 20 21 19 13 14 19 11 12 20 14 7 8 7 6 6 4 4 5 6 7 7 8 9 9 9 9 10 10 10 11 10 11 15 18 20 23 25 26 26 27 28 28 29 32 34 35 36 37 38 40 41 42 41 40 41 41 42 42 43 43 42 42 41 40 38 37 36 34 32
4 5 5 7 9 11 8 7 7 8 7 7 10 13 13 13 16 16 17 15 11 16 21 15 16 19 8 4 5 3 4 4 5 5 6 6 8 9 9 9 9 9 9 10 11 11 10 10 11 15 19 23 26 28 28 28 28 28 29 30 32 34 34 35 37 38 40 40 40 38 38 39 40 41 42 43 43 42 42 42 41 40 39 37 35 33
4 3 3 6 7 9 8 10 9 6 4 8 17 17 12 11 11 13 13 13 14 18 18 13 15 18 7 3 2 2 5 7 7 7 6 6 8 9 10 10 9 10 10 10 10 10 10 10 12 16 22 26 28 29 30 31 29 29 31 33 33 33 32 34 36 37 38 38 37 37 38 39 39 40 41 42 42 43 43 42 41 40 39 38 37 35
5 5 3 6 8 7 6 11 9 5 3 9 17 15 15 13 14 14 14 16 17 15 12 12 15 13 5 6 5 4 6 7 8 8 7 7 9 9 10 10 10 10 10 10 9 10 11 12 16 22 26 27 29 32 34 33 32 34 36 35 33 33 34 36 37 37 37 36 37 38 38 38 38 39 40 41 42 43 42 42 42 42 41 40 38 36
4 6 5 5 5 4 5 9 8 5 6 8 6 11 21 22 21 19 18 19 18 15 13 14 12 4 5 8 9 8 9 9 9 10 9 8 9 10 9 9 10 10 10 10 10 10 11 15 19 23 25 27 30 33 33 33 35 36 34 32 32 34 36 38 38 38 37 37 38 38 37 37 38 39 40 41 41 41 42 43 43 42 41 40 38 37
6 6 4 3 2 2 3 7 7 8 9 4 3 4 16 20 20 21 20 19 18 17 17 17 14 7 7 9 9 10 12 9 5 6 7 7 8 9 10 9 10 10 9 9 10 10 12 16 19 21 23 27 29 29 29 32 34 32 29 30 33 35 37 38 38 38 38 38 39 38 37 37 38 39 39 39 40 41 42 43 43 42 41 40 39 38
9 7 3 2 2 2 3 7 8 4 2 2 4 1 3 5 7 10 13 16 17 17 17 19 19 15 10 8 7 6 6 4 3 2 5 8 9 9 9 9 10 10 10 11 12 13 16 20 22 23 26 27 28 29 30 32 32 30 29 31 33 35 37 37 37 37 38 39 38 38 37 38 38 38 38 39 40 41 42 42 43 42 41 40 39 38
10 7 4 4 4 3 3 6 3 5 4 1 2 3 5 6 8 10 8 11 13 16 17 17 18 17 12 9 5 3 5 6 3 3 6 8 9 8 7 8 10 10 10 11 13 13 17 20 22 23 24 24 25 28 29 29 30 30 30 31 33 35 35 35 36 38 39 38 37 37 37 38 38 39 40 40 40 41 42 43 43 43 42 41 40 40
7 8 7 7 4 3 3 3 2 4 7 5 5 8 8 6 9 11 7 7 8 13 16 16 17 18 12 7 6 6 7 5 4 6 7 8 7 6 6 7 8 9 10 11 11 11 13 16 17 17 18 18 21 24 25 27 28 29 30 31 33 33 32 33 36 37 37 37 36 37 38 39 40 41 41 41 42 42 43 43 43 43 43 43 43 42
3 3 5 5 4 3 4 5 5 6 6 5 7 8 6 5 7 9 2 6 7 9 13 14 16 15 10 9 8 8 7 6 7 6 7 8 7 7 7 4 3 5 5 5 5 6 7 9 10 10 12 15 18 21 23 25 27 29 30 31 31 30 30 34 37 38 38 38 38 38 39 40 41 41 41 42 43 44 44 44 44 44 43 43 43 42
4 3 4 6 6 6 6 5 4 4 4 4 6 5 4 6 9 9 1 8 7 6 8 11 12 11 9 9 8 8 8 8 7 5 4 5 4 2 3 4 5 6 7 6 5 5 6 7 9 11 13 16 17 19 21 23 26 28 29 29 28 29 33 37 39 38 38 38 37 37 38 39 40 41 42 43 44 43 44 44 43 42 42 42 41 40
3 3 4 7 7 6 7 6 3 3 4 5 6 5 6 7 7 6 7 7 4 5 6 8 9 8 9 9 8 7 6 3 2 2 2 5 6 5 6 7 8 9 9 9 9 9 9 10 11 12 13 14 14 16 18 21 23 26 26 26 27 31 35 37 37 36 35 35 35 35 37 38 40 41 42 42 42 42 42 42 42 41 42 41 41 39
4 3 3 5 6 5 5 5 3 5 5 5 6 4 6 6 4 7 6 3 4 6 5 6 8 8 9 9 7 5 3 2 4 4 5 6 6 5 5 8 10 10 10 11 11 11 12 12 11 10 10 10 11 13 16 19 22 24 24 25 28 31 33 33 32 32 31 32 33 34 36 37 38 39 40 40 40 40 40 40 40 41 40 40 39 39
6 5 3 5 5 3 3 5 4 5 4 11 12 4 3 5 5 5 3 1 2 5 6 5 6 6 8 8 5 4 5 5 5 5 5 5 6 6 5 6 8 9 10 11 11 11 11 11 11 10 10 10 11 12 14 18 20 22 23 25 27 28 27 27 27 27 28 29 31 33 34 35 36 37 38 38 39 39 39 39 39 39 39 39 38 38
6 6 4 4 5 4 4 7 5 2 5 11 11 6 6 6 4 5 7 3 0 3 5 4 4 6 7 8 6 5 6 5 5 5 5 5 5 6 5 6 8 9 10 10 10 11 11 11 12 11 11 11 12 13 15 18 19 20 22 23 23 22 22 22 22 22 24 26 28 30 31 33 34 35 36 37 37 37 38 38 38 38 38 38 38 37
8 7 4 4 5 4 4 5 3 0 4 6 3 2 6 6 3 5 8 5 2 4 4 5 5 6 6 7 8 6 5 5 6 5 5 5 5 5 5 6 7 9 10 10 10 12 13 12 12 13 13 13 14 15 16 17 18 19 20 20 18 17 18 19 19 20 22 24 25 27 28 30 31 33 34 35 36 37 38 38 37 37 37 37 37 37
4 4 2 3 4 2 1 2 1 0 4 4 1 0 3 4 3 5 6 5 4 5 4 4 6 7 7 8 8 6 5 7 7 5 4 5 5 4 4 5 7 8 10 11 11 12 13 11 11 13 13 14 14 15 16 17 18 18 17 16 14 15 16 16 17 19 20 21 23 24 25 27 29 31 32 34 35 37 38 38 39 39 38 38 38 39
2 2 2 3 5 4 3 3 3 2 4 5 2 1 1 3 3 4 5 5 6 6 5 4 6 7 7 8 8 8 7 8 8 6 4 5 5 4 4 5 7 9 11 11 10 11 12 11 11 12 13 14 15 15 15 16 17 17 16 14 12 13 13 14 16 17 18 20 21 22 24 26 27 29 31 33 34 36 37 38 39 39 39 40 40 40
2 5 4 4 5 5 2 2 1 1 1 2 2 2 3 4 4 2 2 4 6 5 4 4 6 7 7 6 7 9 8 8 8 7 6 5 5 5 5 6 8 10 10 9 9 10 12 12 13 13 13 14 15 15 16 16 17 17 17 15 14 13 13 15 16 17 18 19 20 21 23 25 27 28 30 32 34 36 37 39 40 41 42 44 44 43
4 6 5 3 4 2 1 1 2 3 2 3 4 4 4 3 5 4 4 5 7 7 6 5 3 4 6 7 7 9 9 7 7 8 8 6 5 5 7 8 9 10 10 10 10 11 12 13 14 14 15 15 15 16 17 17 17 17 18 18 17 16 16 16 17 18 18 19 20 22 23 25 27 29 30 32 34 36 38 39 40 42 44 45 44 44
5 6 4 4 5 3 4 7 7 5 2 5 7 6 5 3 5 6 5 5 7 7 7 7 4 3 4 5 7 9 9 8 7 7 7 7 7 8 10 11 11 11 10 10 10 11 12 13 14 14 15 15 15 15 17 18 18 19 19 20 20 20 19 18 17 18 19 20 22 23 24 26 28 29 31 32 34 35 37 37 38 39 40 40 39 39
5 7 6 6 6 5 6 10 7 3 4 7 7 7 6 5 6 7 7 7 7 7 8 9 7 5 3 3 5 8 9 7 7 8 7 7 8 10 12 12 12 12 11 11 11 12 13 13 13 14 15 15 15 15 16 17 18 19 19 20 20 21 20 19 19 20 21 22 24 25 25 26 28 29 30 31 31 32 33 33 34 35 36 36 35 35
Wind_Direction
113 133 178 192 208 207 195 198 206 184 146 142 141 161 199 223 265 254 258 272 186 168 240 220 224 241 244 250 240 209 198 216 230 229 224 211 201 200 198 197 190 185 184 174 171 173 178 172 162 163 162 157 154 153 153 154 155 156 157 154 148 145 146 145 141 140 139 134 131 130 126 124 122 124 126 126 127 129 130 131 132 132 131 131 132 132
110 173 217 219 212 201 193 202 209 184 157 164 168 222 257 229 254 259 250 281 177 169 257 242 234 249 244 251 252 185 179 219 220 217 223 212 204 205 199 197 186 171 165 166 171 172 173 169 161 162 161 158 155 152 153 153 152 152 154 154 149 145 145 144 143 142 139 136 135 133 130 127 125 126 126 126 127 128 129 130 130 130 130 131 130 130
177 221 233 226 195 158 189 194 187 204 214 224 214 237 266 247 271 280 266 287 168 178 257 271 256 255 251 252 251 203 196 223 220 213 219 209 203 206 196 190 176 166 170 172 176 173 173 170 164 166 164 162 160 155 155 154 151 152 152 152 150 149 148 146 145 144 139 135 134 133 132 131 129 127 127 127 127 129 129 128 127 127 129 128 127 127
196 247 240 214 151 150 199 185 156 184 229 219 208 207 250 249 253 276 285 303 278 224 262 287 280 264 261 266 257 231 217 229 230 220 224 215 208 206 196 189 178 174 175 176 178 175 175 174 171 172 168 164 162 158 159 158 155 156 155 154 154 154 153 151 150 146 141 136 132 132 132 131 130 128 129 129 128 131 130 128 128 127 127 126 124 124
212 248 237 162 158 175 196 198 166 177 242 233 209 199 227 237 221 234 283 323 329 333 328 309 298 272 239 243 251 243 221 239 238 218 227 226 214 197 186 192 187 179 174 172 177 178 178 177 176 176 170 166 166 163 164 165 161 159 159 160 159 157 156 156 154 149 144 139 134 131 128 127 127 126 130 132 129 131 132 130 129 127 127 126 123 122
235 244 95 126 166 176 180 209 196 184 217 259 224 206 218 225 224 231 323 7 353 324 314 353 296 278 242 228 248 261 248 248 231 214 226 222 201 186 188 193 186 181 178 173 175 175 175 175 175 175 170 168 169 168 169 171 169 164 162 163 162 161 159 157 155 151 149 146 143 140 136 133 130 128 132 135 132 132 132 130 129 127 127 126 124 122
228 213 134 131 159 168 182 221 217 182 182 258 237 207 210 205 207 218 179 41 271 267 295 72 198 275 280 216 232 241 240 252 241 230 235 219 199 200 197 191 180 177 178 174 174 171 172 174 173 173 172 171 171 170 171 173 173 171 168 168 167 164 160 157 154 154 153 151 150 152 151 147 144 138 134 136 135 134 133 131 130 129 127 126 124 122
183 195 184 155 147 164 188 221 217 173 161 244 244 175 178 183 200 211 189 209 234 264 312 47 127 276 281 243 209 193 204 253 256 246 244 224 210 211 200 190 182 178 175 169 172 172 174 177 174 173 172 171 170 171 174 174 173 175 173 172 171 166 161 159 158 159 161 161 159 158 154 150 148 143 137 136 136 134 134 133 132 130 129 127 125 124
155 179 194 182 173 190 203 212 189 158 171 246 203 131 143 163 175 153 156 203 282 353 297 231 131 257 277 275 133 188 214 248 256 250 247 229 214 215 202 191 180 176 175 169 171 173 175 177 176 174 170 169 170 171 175 175 173 175 173 172 171 167 164 163 164 165 168 171 168 162 154 146 143 142 139 137 137 136 137 135 134 133 131 130 128 127
155 190 192 176 181 206 209 215 172 161 196 219 126 97 71 74 76 82 120 134 49 311 243 203 164 230 271 253 108 132 231 241 250 251 252 229 210 211 195 183 172 168 175 171 169 170 172 176 175 173 168 166 169 172 176 176 174 175 174 171 170 168 167 167 170 172 172 174 169 162 156 148 144 142 141 140 139 140 140 138 137 136 134 133 131 129
302 268 193 165 181 188 157 94 153 173 177 134 97 64 43 34 35 48 56 81 43 276 229 186 179 190 272 269 160 194 220 225 236 256 271 237 204 205 187 179 175 171 172 166 162 164 166 170 172 170 167 166 167 171 174 175 174 175 174 170 168 168 169 170 173 176 174 171 167 162 158 153 149 147 145 144 143 144 144 142 140 139 138 136 135 133
332 337 254 224 165 125 103 82 28 35 115 106 88 81 64 351 8 22 357 53 211 263 227 184 183 185 233 260 226 236 259 240 219 240 265 243 209 203 189 183 179 172 168 162 159 160 159 162 167 170 169 167 168 170 172 173 173 174 172 169 167 167 170 172 175 177 173 169 166 163 160 156 153 152 151 150 149 149 148 146 144 143 142 141 139 138
299 237 253 300 197 136 119 103 28 12 61 91 103 108 114 309 0 0 315 188 221 264 266 184 180 202 238 257 257 256 267 261 229 227 249 240 216 202 188 182 176 170 168 164 163 164 162 164 168 172 172 171 171 171 171 171 172 172 171 170 168 168 171 173 174 175 172 168 166 164 162 159 156 156 156 154 153 153 152 150 148 147 146 145 144 143
268 293 298 171 256 186 154 158 172 207 161 148 145 140 155 167 200 252 249 257 252 274 298 179 175 253 273 270 247 243 255 267 254 241 244 238 222 204 187 175 167 169 172 171 168 168 170 172 173 175 175 174 172 172 172 172 172 172 172 173 172 170 172 174 175 175 173 169 168 166 165 162 160 160 160 159 157 156 155 153 151 150 149 147 146 145
212 287 210 180 215 186 180 188 170 143 157 180 155 139 162 164 173 215 208 224 253 284 303 256 174 209 205 249 242 238 264 288 280 263 257 251 228 188 167 161 162 172 176 175 174 174 176 176 176 177 177 175 174 173 175 176 175 175 176 177 175 173 174 176 177 178 175 171 169 169 168 166 165 164 164 162 160 159 157 155 153 152 150 149 148 147
196 265 237 209 185 168 181 194 125 108 140 228 113 120 185 182 174 209 200 181 182 293 289 223 219 221 205 264 267 252 275 284 288 295 294 267 197 146 155 167 170 176 176 176 177 176 178 177 177 178 177 178 177 176 178 179 179 179 179 179 179 178 178 179 179 180 179 175 172 171 171 170 169 168 167 165 163 161 159 157 155 153 152 151 150 150
175 274 275 355 27 175 181 170 135 140 175 160 129 175 199 153 157 205 261 130 114 270 263 194 240 284 306 281 283 269 265 269 282 289 256 231 175 160 175 179 177 180 177 178 178 175 176 177 179 181 180 180 179 179 181 182 183 184 182 182 182 180 180 181 182 182 181 178 175 175 174 174 173 172 170 167 165 163 161 160 157 155 155 155 154 154
161 255 281 102 172 253 283 107 74 21 138 132 181 198 150 62 115 146 267 327 101 256 270 201 230 264 237 267 319 21 264 260 261 255 244 234 200 192 194 184 182 179 171 173 173 173 176 177 181 184 183 183 183 183 184 184 186 186 186 186 184 182 182 184 184 184 184 181 178 178 178 178 177 175 173 170 167 166 164 163 161 160 159 158 158 157
148 222 295 70 168 292 356 94 57 354 80 131 193 186 122 130 197 129 193 224 197 241 280 251 233 233 202 224 297 267 236 249 253 241 232 226 208 202 199 184 178 169 166 174 175 177 179 180 184 185 185 186 185 186 186 186 187 187 189 189 187 186 184 184 185 184 184 183 182 181 181 181 180 178 176 173 170 169 167 166 165 164 163 161 161 161
121 192 269 341 293 318 14 127 175 220 345 53 124 155 112 148 175 165 181 175 166 214 259 289 284 240 221 209 208 225 231 236 242 234 227 224 209 202 194 179 178 177 178 182 181 183 183 183 186 185 186 187 186 188 187 186 187 188 188 188 187 187 184 183 185 184 184 184 184 184 183 184 183 181 179 177 174 172 170 169 169 168 166 164 163 164
112 197 234 321 332 185 192 207 191 188 182 149 156 171 176 127 106 182 222 140 142 178 210 281 288 256 242 210 197 220 234 232 233 231 234 228 206 201 194 182 186 184 185 188 183 184 182 183 186 187 188 188 187 188 187 187 188 187 188 187 186 186 184 184 186 185 185 185 186 186 186 186 186 184 183 180 178 176 174 173 172 170 168 166 166 167
168 186 170 166 221 203 222 244 217 202 193 179 186 186 180 167 141 182 241 195 147 187 179 211 271 259 237 196 200 223 243 251 246 239 249 239 199 201 197 186 190 188 189 191 184 181 181 181 183 184 186 187 187 188 187 187 187 187 188 188 187 187 187 186 186 186 186 186 187 188 188 188 188 188 186 183 181 180 178 177 176 173 171 169 168 170
141 122 140 177 210 216 237 261 234 222 199 161 193 188 176 185 177 184 223 208 165 219 160 129 276 276 252 192 209 236 251 270 266 244 253 245 197 196 194 186 192 192 190 189 181 179 179 179 180 182 185 188 189 188 187 187 188 189 189 189 188 189 189 189 187 187 187 187 188 189 189 190 190 191 190 187 184 183 182 180 178 176 174 171 171 172
113 131 163 203 292 304 302 304 329 45 114 153 217 189 182 205 199 188 202 174 173 209 154 143 258 265 283 230 226 254 262 270 264 241 240 235 195 183 187 185 188 188 181 177 176 173 171 173 178 183 187 189 190 189 188 188 189 190 190 190 191 191 190 189 187 187 188 188 189 190 191 191 192 193 192 189 187 186 185 183 180 178 177 175 174 174
177 171 152 151 272 326 324 274 256 250 185 199 219 197 196 204 188 177 117 118 219 205 167 198 245 234 267 292 283 302 311 298 276 255 234 223 197 181 184 181 182 182 175 173 170 165 169 174 181 187 191 191 191 191 189 189 190 190 191 192 193 192 190 189 189 189 190 190 190 191 192 193 194 194 193 191 190 189 187 185 183 181 179 178 177 177
175 169 160 179 210 222 222 215 206 190 180 199 196 186 198 200 189 190 182 188 230 197 168 209 243 235 280 306 296 308 324 301 283 283 257 228 205 187 184 179 181 180 177 178 176 173 177 180 185 191 193 194 194 192 190 190 191 192 193 194 194 193 190 190 191 191 191 191 191 191 193 194 195 195 194 192 192 191 190 187 185 183 182 181 180 180
135 177 191 198 214 222 221 211 156 133 153 203 202 189 196 203 196 191 206 213 202 155 196 222 235 255 269 258 255 276 279 270 274 275 254 236 213 196 187 179 178 177 177 177 177 180 182 183 188 191 193 194 195 194 194 194 194 194 194 195 195 194 193 193 193 193 192 192 192 193 195 196 196 196 195 194 194 193 191 189 188 186 184 184 184 182
107 206 209 206 222 226 192 168 170 159 179 202 201 198 201 200 192 191 214 217 153 149 241 225 192 245 259 245 236 245 237 243 252 242 234 221 198 184 171 167 171 173 175 175 175 179 182 186 191 190 190 191 193 196 197 198 198 198 197 196 196 196 196 195 193 193 193 193 194 196 198 198 197 196 195 195 196 195 193 191 190 188 187 187 187 186
135 212 213 201 222 226 146 141 188 172 184 203 200 203 201 194 192 198 216 217 168 195 244 216 167 230 249 245 237 230 217 227 233 222 204 170 163 165 161 171 179 176 179 183 182 182 184 189 190 188 189 190 192 197 198 199 200 200 200 200 198 198 198 196 194 194 194 195 197 199 200 199 197 196 196 197 197 197 195 193 192 191 190 191 190 189
160 206 196 186 220 228 177 161 185 166 176 210 209 210 202 195 197 200 215 219 199 221 243 231 224 243 245 221 229 230 213 216 194 146 150 151 159 165 168 179 185 181 184 187 187 189 189 189 186 186 188 189 194 197 198 199 200 200 201 201 201 200 199 197 195 195 196 199 201 202 201 199 198 197 197 198 199 198 197 195 194 193 193 193 193 192
192 192 151 151 218 235 198 178 192 182 185 216 229 221 203 197 203 206 218 218 206 229 240 239 251 258 242 172 217 213 139 147 144 151 164 165 167 170 177 187 187 186 189 191 192 191 188 185 182 185 190 195 197 197 198 200 200 200 201 203 203 202 200 199 198 198 200 202 203 203 202 200 199 199 199 200 200 199 198 197 196 196 196 196 196 195
191 191 114 135 208 231 192 179 198 186 165 247 249 229 193 184 201 208 217 212 204 221 233 235 248 253 239 133 138 163 159 167 173 174 171 177 181 176 181 188 188 190 193 195 194 188 185 186 185 191 197 200 199 198 199 200 199 200 203 204 204 202 201 201 201 202 204 205 205 204 204 203 201 200 201 201 201 201 200 199 199 199 199 198 198 198
168 170 150 167 204 230 188 172 178 141 121 258 252 215 178 189 208 208 216 218 211 213 218 222 236 244 215 147 159 194 200 192 189 184 178 185 188 184 185 186 188 195 197 195 193 189 190 194 196 200 202 201 200 202 203 200 199 203 206 205 203 201 202 204 204 205 207 207 207 207 206 205 203 202 203 203 203 203 201 201 201 202 202 201 201 200
163 172 179 182 196 216 174 151 143 152 197 242 252 170 173 194 206 207 217 219 211 210 219 228 237 227 150 172 185 192 201 204 202 198 189 181 180 182 185 187 191 196 197 195 194 194 196 200 203 206 205 205 205 206 205 203 205 208 208 204 202 203 204 206 206 207 209 209 210 210 208 206 205 205 206 206 205 204 203 203 204 204 204 204 203 203
174 182 181 177 176 165 134 137 158 201 218 243 348 167 184 197 202 207 221 224 215 216 226 237 244 228 188 200 200 194 202 206 194 187 182 170 171 175 178 188 196 196 195 194 194 197 200 200 201 204 206 208 208 205 204 206 207 207 205 203 204 204 206 207 207 209 210 211 212 211 209 208 208 208 208 207 207 206 206 206 207 206 206 206 206 206
173 185 175 161 159 129 147 178 191 232 269 67 30 1 169 169 180 200 230 237 224 219 224 232 240 237 219 218 221 208 194 159 97 161 188 178 178 177 177 187 194 193 193 193 192 195 198 197 198 202 206 207 205 202 204 206 205 203 203 204 205 206 207 208 208 210 212 213 213 212 210 209 209 209 210 209 209 209 209 209 209 209 209 209 209 210
169 173 170 189 190 146 177 206 226 329 313 179 159 204 175 159 165 175 216 243 225 215 219 225 235 238 228 216 212 157 112 107 111 242 227 204 195 187 183 191 196 197 199 196 193 194 196 199 202 204 203 200 199 202 206 206 203 201 202 203 205 207 208 208 210 213 214 214 214 212 212 211 211 212 212 211 211 211 211 211 211 211 211 211 212 213
176 182 182 194 195 136 156 206 240 276 252 219 202 210 196 178 171 167 191 255 232 211 213 214 224 232 221 189 168 139 123 144 194 220 223 218 211 205 208 207 198 194 194 190 184 178 179 186 191 193 193 194 200 207 208 205 203 201 201 203 206 207 207 209 213 215 216 216 216 215 214 214 214 214 213 213 213 214 214 214 214 214 214 214 215 216
165 185 183 187 190 168 181 200 205 225 239 218 204 207 185 152 133 119 132 270 245 211 205 204 216 221 196 168 167 153 154 197 214 213 211 208 206 204 201 185 134 132 149 160 164 156 156 164 168 175 186 194 202 207 207 205 203 200 201 205 206 205 206 212 217 218 218 219 219 218 218 217 216 216 215 215 217 217 217 217 217 217 217 217 218 219
161 160 177 192 201 192 193 211 226 233 240 214 209 211 172 146 123 106 159 263 244 203 189 190 204 206 174 162 166 163 180 207 214 216 206 173 151 136 134 118 96 96 102 105 114 127 142 157 165 173 186 198 204 205 204 204 201 200 203 206 204 205 212 219 222 222 222 222 221 220 220 219 219 218 218 219 220 220 220 220 219 218 218 219 220 221
171 168 182 199 205 196 195 214 254 263 234 205 195 186 159 139 128 155 215 240 205 174 175 174 184 181 160 160 171 182 198 206 165 163 104 95 95 73 76 98 106 109 113 119 127 136 148 161 172 179 189 199 203 202 202 200 198 201 205 205 205 212 222 227 227 226 225 224 223 222 223 222 222 223 223 223 223 223 222 222 221 221 221 221 221 222
169 159 178 199 200 196 201 212 248 267 237 157 136 161 162 150 181 212 217 209 155 162 168 168 170 165 162 171 177 173 155 73 83 98 88 96 116 113 104 110 109 108 118 127 136 147 153 158 166 175 184 190 194 198 199 198 199 203 204 204 212 224 230 230 229 227 226 225 225 225 226 226 226 226 226 225 224 223 223 223 223 224 224 223 223 223
164 157 182 198 183 166 189 199 216 256 211 135 123 133 204 191 205 201 163 72 131 149 147 155 168 169 169 172 162 128 117 101 89 97 103 113 121 120 126 131 126 129 138 143 150 159 160 161 168 175 181 185 190 196 197 198 201 202 203 210 223 231 232 229 229 229 228 228 228 229 229 229 229 228 227 226 225 224 224 224 224 224 225 225 225 225
173 171 183 196 177 154 187 204 207 226 180 152 142 160 195 196 198 161 140 129 188 156 147 149 170 180 174 163 152 142 133 126 123 126 124 119 117 121 132 141 145 151 157 159 163 169 172 175 178 180 184 187 191 197 200 202 202 201 207 220 230 231 230 231 231 229 229 230 231 231 232 232 231 230 229 228 226 224 224 224 224 224 225 226 226 226
201 188 172 181 180 165 185 210 225 107 163 164 145 162 170 165 161 148 137 130 165 187 165 153 164 176 170 155 147 147 149 154 159 156 139 133 144 148 145 154 164 167 169 173 175 178 183 185 182 182 185 190 194 199 203 205 204 206 216 228 233 231 233 234 231 230 231 233 233 233 233 232 232 231 230 229 227 225 224 224 223 223 224 225 225 225
219 187 143 149 170 183 234 203 190 120 160 150 61 345 160 139 146 157 139 130 166 183 165 149 157 162 161 153 146 151 166 164 161 160 147 148 163 164 153 164 175 175 178 183 184 184 185 187 187 188 190 194 198 201 203 206 210 216 225 232 233 233 236 234 231 232 234 235 235 234 232 231 231 230 230 229 228 228 227 226 225 224 224 224 225 226
281 186 153 148 163 177 205 188 166 178 175 150 100 43 112 113 147 168 150 140 156 166 159 146 140 142 152 157 154 158 165 159 155 159 160 159 168 177 181 185 186 187 190 190 188 187 188 189 193 197 200 204 206 206 206 210 215 221 228 232 232 233 234 232 232 234 235 235 235 234 231 231 230 229 228 227 227 227 227 227 227 225 224 224 224 224
197 165 172 195 181 170 194 225 173 112 152 152 143 167 164 142 132 116 101 117 121 121 124 124 128 140 154 163 157 152 155 161 160 159 167 178 178 181 197 202 195 195 198 197 193 192 195 199 204 208 212 214 213 213 214 215 219 222 223 227 231 230 230 231 232 234 237 237 236 235 234 233 232 230 228 227 227 226 226 226 226 226 227 229 228 226
141 157 170 167 150 128 345 237 144 81 21 289 252 236 221 174 134 101 78 100 112 110 106 98 107 145 156 160 153 144 150 170 173 161 164 177 181 188 201 202 198 199 200 200 201 202 204 210 214 216 219 221 220 221 222 223 224 224 224 227 231 231 231 232 231 233 236 236 236 236 236 234 233 232 231 229 229 229 230 230 230 230 233 235 235 234
148 168 166 137 153 185 199 183 166 136 169 226 227 218 213 179 131 120 115 120 131 135 128 112 83 74 117 145 149 144 152 174 178 162 165 180 188 191 192 189 190 198 201 199 202 207 213 219 223 225 230 232 230 230 231 232 232 231 230 231 233 234 235 234 232 232 233 234 236 237 236 234 234 233 232 231 231 231 231 232 233 234 236 238 238 239
172 180 169 159 182 203 177 168 166 140 160 191 197 193 191 171 144 150 159 156 156 156 144 132 123 115 127 158 159 151 154 169 173 163 169 189 190 184 183 186 189 196 200 198 200 207 215 220 225 230 236 240 241 242 244 245 243 242 240 238 238 238 239 238 236 235 235 236 238 238 237 236 235 234 233 233 233 234 234 234 235 236 238 240 242 243